User: anonymous   Login
Location: Unspecified
(0.0000°N, 0.0000°E)
Time: 13:22:50
(UTC+00:00)
Language:

XW-2C - Orbit

View from above orbital plane
View from above orbital plane
View from above satellite
View from above satellite

Ground track
Ground track

The orbit data is extracted from the following two-line orbital elements,

1 40906U 15049H   18116.14552740  .00000691  00000-0  40312-4 0  9993
2 40906  97.4604 120.5932 0014268 204.5666 155.4888 15.15124017143614
Epoch (UTC): 26 April 2018 03:29:33
Eccentricity: 0.0014268
inclination: 97.4604°
perigee height: 511 km
apogee height: 530 km
right ascension of ascending node: 120.5932°
argument of perigee: 204.5666°
revolutions per day: 15.15124017
mean anomaly at epoch: 155.4888°
orbit number at epoch: 14361

The dashed part of the orbit path shows where the satellite is in the earth's shadow,  

DLR